Wetterdaten: Donnerstag, 27.02.2014
Datum Zeit Temperatur Luftfeuchte Luftdruck Regen Wind Richtung Richtung Taupunkt Windchill Windben
27.02.2014 00:00 1,9 C 73 % 1017,9 hPa 0,0 l/m 6,3 km/h (2 Bft) O-SO 112 -2,4 C 0,8 C 6,9 km/h (2 Bft)
27.02.2014 00:05 1,9 C 73 % 1017,9 hPa 0,0 l/m 6,4 km/h (2 Bft) O 90 -2,4 C 0,8 C 7,1 km/h (2 Bft)
27.02.2014 00:10 2,0 C 73 % 1017,9 hPa 0,0 l/m 6,0 km/h (2 Bft) O-NO 67 -2,3 C 0,7 C 6,1 km/h (2 Bft)
27.02.2014 00:15 1,9 C 73 % 1017,9 hPa 0,0 l/m 5,5 km/h (1 Bft) O 90 -2,4 C 0,8 C 5,0 km/h (1 Bft)
27.02.2014 00:20 1,3 C 74 % 1017,9 hPa 0,0 l/m 2,4 km/h (1 Bft) NO 45 -2,8 C 1,7 C 0,0 km/h (0 Bft)
27.02.2014 00:25 0,7 C 73 % 1017,9 hPa 0,0 l/m 0,8 km/h (0 Bft) W-NW 292 -3,6 C 1,1 C 0,0 km/h (0 Bft)
27.02.2014 00:30 0,4 C 74 % 1017,8 hPa 0,0 l/m 0,5 km/h (0 Bft) NO 45 -3,7 C 0,3 C 0,0 km/h (0 Bft)
27.02.2014 00:35 1,1 C 75 % 1017,8 hPa 0,0 l/m 1,6 km/h (1 Bft) O 90 -2,8 C 0,2 C 4,7 km/h (1 Bft)
27.02.2014 00:40 0,8 C 75 % 1017,8 hPa 0,0 l/m 1,6 km/h (1 Bft) N-NO 22 -3,1 C 0,3 C 0,0 km/h (0 Bft)
27.02.2014 00:45 0,2 C 75 % 1017,8 hPa 0,0 l/m 0,8 km/h (0 Bft) O-NO 67 -3,7 C -0,2 C 2,4 km/h (1 Bft)
27.02.2014 00:50 1,4 C 77 % 1017,8 hPa 0,0 l/m 2,1 km/h (1 Bft) SO 135 -2,2 C 0,1 C 4,8 km/h (1 Bft)
27.02.2014 00:55 0,9 C 76 % 1017,8 hPa 0,0 l/m 2,3 km/h (1 Bft) O 90 -2,8 C 0,3 C 1,8 km/h (1 Bft)
27.02.2014 01:00 1,1 C 77 % 1017,8 hPa 0,0 l/m 3,7 km/h (1 Bft) O-SO 112 -2,5 C -0,1 C 10,5 km/h (2 Bft)
27.02.2014 01:05 1,4 C 77 % 1017,8 hPa 0,0 l/m 5,1 km/h (1 Bft) O 90 -2,2 C -0,5 C 5,3 km/h (1 Bft)
27.02.2014 01:10 0,5 C 76 % 1018,0 hPa 0,0 l/m 2,9 km/h (1 Bft) O 90 -3,2 C 0,4 C 0,0 km/h (0 Bft)
27.02.2014 01:15 1,0 C 78 % 1018,0 hPa 0,0 l/m 2,1 km/h (1 Bft) O-SO 112 -2,4 C 0,3 C 7,4 km/h (2 Bft)
27.02.2014 01:20 1,5 C 79 % 1018,0 hPa 0,0 l/m 4,0 km/h (1 Bft) N-NO 22 -1,7 C -0,2 C 0,0 km/h (0 Bft)
27.02.2014 01:25 0,2 C 77 % 1018,0 hPa 0,0 l/m 3,2 km/h (1 Bft) N 360 -3,3 C 0,1 C 0,0 km/h (0 Bft)
27.02.2014 01:30 -0,7 C 76 % 1018,2 hPa 0,0 l/m 0,2 km/h (0 Bft) N 360 -4,4 C -0,4 C 0,0 km/h (0 Bft)
27.02.2014 01:35 -0,7 C 77 % 1018,2 hPa 0,0 l/m 0,2 km/h (0 Bft) O-SO 112 -4,2 C -0,8 C 0,0 km/h (0 Bft)
27.02.2014 01:40 -0,4 C 78 % 1018,2 hPa 0,0 l/m 0,2 km/h (0 Bft) O-SO 112 -3,8 C -0,9 C 0,0 km/h (0 Bft)
27.02.2014 01:45 -0,9 C 78 % 1018,2 hPa 0,0 l/m 0,0 km/h (0 Bft) O-SO 112 -4,2 C -1,0 C 0,0 km/h (0 Bft)
27.02.2014 01:50 -1,0 C 78 % 1018,4 hPa 0,0 l/m 0,0 km/h (0 Bft) O-SO 112 -4,3 C -1,1 C 0,0 km/h (0 Bft)
27.02.2014 01:55 -1,1 C 78 % 1018,4 hPa 0,0 l/m 0,0 km/h (0 Bft) O-SO 112 -4,4 C -1,2 C 0,0 km/h (0 Bft)
27.02.2014 02:00 -0,9 C 79 % 1018,4 hPa 0,0 l/m 0,6 km/h (0 Bft) O-SO 112 -4,1 C -1,3 C 2,4 km/h (1 Bft)
27.02.2014 02:05 -0,2 C 80 % 1018,4 hPa 0,0 l/m 1,3 km/h (1 Bft) O 90 -3,2 C -1,2 C 3,5 km/h (1 Bft)
27.02.2014 02:10 0,1 C 81 % 1018,5 hPa 0,0 l/m 1,1 km/h (1 Bft) O-SO 112 -2,8 C -0,8 C 0,0 km/h (0 Bft)
27.02.2014 02:15 0,3 C 82 % 1018,5 hPa 0,0 l/m 0,8 km/h (0 Bft) S 180 -2,4 C -0,4 C 1,6 km/h (1 Bft)
27.02.2014 02:20 0,4 C 82 % 1018,5 hPa 0,0 l/m 1,8 km/h (1 Bft) S-SO 157 -2,3 C 0,1 C 4,7 km/h (1 Bft)
27.02.2014 02:25 0,6 C 83 % 1018,5 hPa 0,0 l/m 2,7 km/h (1 Bft) S-SO 157 -1,9 C 0,2 C 3,9 km/h (1 Bft)
27.02.2014 02:30 1,0 C 83 % 1018,6 hPa 0,0 l/m 3,2 km/h (1 Bft) S-SO 157 -1,6 C 0,5 C 3,4 km/h (1 Bft)
27.02.2014 02:35 1,2 C 83 % 1018,6 hPa 0,0 l/m 2,3 km/h (1 Bft) S 180 -1,4 C 1,2 C 2,1 km/h (1 Bft)
27.02.2014 02:40 1,4 C 84 % 1018,6 hPa 0,0 l/m 1,1 km/h (1 Bft) S-SO 157 -1,0 C 1,6 C 3,4 km/h (1 Bft)
27.02.2014 02:45 1,4 C 84 % 1018,6 hPa 0,0 l/m 1,6 km/h (1 Bft) S-SO 157 -1,0 C 1,8 C 1,6 km/h (1 Bft)
27.02.2014 02:50 1,6 C 84 % 1018,6 hPa 0,0 l/m 2,4 km/h (1 Bft) S 180 -0,8 C 2,0 C 7,6 km/h (2 Bft)
27.02.2014 02:55 1,8 C 85 % 1018,6 hPa 0,0 l/m 3,1 km/h (1 Bft) SO 135 -0,4 C 1,8 C 3,7 km/h (1 Bft)
27.02.2014 03:00 2,0 C 86 % 1018,6 hPa 0,0 l/m 4,5 km/h (1 Bft) O-SO 112 -0,1 C 1,2 C 6,4 km/h (2 Bft)
27.02.2014 03:05 2,2 C 87 % 1018,6 hPa 0,0 l/m 5,0 km/h (1 Bft) O-SO 112 0,3 C 1,2 C 6,6 km/h (2 Bft)
27.02.2014 03:10 2,3 C 87 % 1018,7 hPa 0,0 l/m 6,0 km/h (2 Bft) O-SO 112 0,4 C 1,1 C 6,1 km/h (2 Bft)
27.02.2014 03:15 2,3 C 87 % 1018,7 hPa 0,0 l/m 5,5 km/h (1 Bft) SO 135 0,4 C 1,2 C 4,3 km/h (1 Bft)
27.02.2014 03:20 2,4 C 87 % 1018,7 hPa 0,0 l/m 5,1 km/h (1 Bft) SO 135 0,5 C 1,4 C 5,3 km/h (1 Bft)
27.02.2014 03:25 2,4 C 87 % 1018,7 hPa 0,0 l/m 5,1 km/h (1 Bft) O-SO 112 0,5 C 1,5 C 7,2 km/h (2 Bft)
27.02.2014 03:30 2,5 C 87 % 1018,6 hPa 0,0 l/m 5,3 km/h (1 Bft) O-NO 67 0,6 C 1,4 C 6,4 km/h (2 Bft)
27.02.2014 03:35 2,6 C 87 % 1018,6 hPa 0,0 l/m 5,6 km/h (1 Bft) NO 45 0,7 C 1,4 C 8,4 km/h (2 Bft)
27.02.2014 03:40 2,7 C 87 % 1018,6 hPa 0,0 l/m 6,4 km/h (2 Bft) O-SO 112 0,8 C 1,2 C 6,8 km/h (2 Bft)
27.02.2014 03:45 2,7 C 87 % 1018,6 hPa 0,0 l/m 6,8 km/h (2 Bft) O-SO 112 0,8 C 0,9 C 7,6 km/h (2 Bft)
27.02.2014 03:50 2,8 C 87 % 1018,6 hPa 0,0 l/m 6,4 km/h (2 Bft) O-SO 112 0,9 C 1,5 C 6,8 km/h (2 Bft)
27.02.2014 03:55 2,9 C 87 % 1018,6 hPa 0,0 l/m 6,6 km/h (2 Bft) SO 135 1,0 C 1,3 C 7,6 km/h (2 Bft)
27.02.2014 04:00 2,9 C 87 % 1018,6 hPa 0,0 l/m 5,8 km/h (2 Bft) SO 135 1,0 C 1,9 C 6,4 km/h (2 Bft)
27.02.2014 04:05 2,9 C 87 % 1018,6 hPa 0,0 l/m 5,5 km/h (1 Bft) O-SO 112 1,0 C 2,1 C 6,6 km/h (2 Bft)
27.02.2014 04:10 3,0 C 86 % 1018,5 hPa 0,0 l/m 6,3 km/h (2 Bft) SO 135 0,9 C 1,9 C 6,1 km/h (2 Bft)
27.02.2014 04:13 3,0 C 86 % 1018,5 hPa 0,0 l/m 6,8 km/h (2 Bft) O 90 0,9 C 1,2 C 8,9 km/h (2 Bft)
27.02.2014 04:15 3,0 C 86 % 1018,5 hPa 0,0 l/m 6,8 km/h (2 Bft) O 90 0,9 C 1,2 C 8,9 km/h (2 Bft)
27.02.2014 04:20 2,9 C 86 % 1018,5 hPa 0,0 l/m 6,8 km/h (2 Bft) O 90 0,8 C 1,3 C 7,1 km/h (2 Bft)
27.02.2014 04:25 2,9 C 86 % 1018,5 hPa 0,0 l/m 6,3 km/h (2 Bft) N-NO 22 0,8 C 1,8 C 5,8 km/h (2 Bft)
27.02.2014 04:30 2,9 C 86 % 1018,9 hPa 0,0 l/m 5,8 km/h (2 Bft) W-NW 292 0,8 C 1,9 C 6,1 km/h (2 Bft)
27.02.2014 04:35 2,8 C 86 % 1018,9 hPa 0,0 l/m 5,6 km/h (1 Bft) O-SO 112 0,7 C 1,9 C 7,4 km/h (2 Bft)
27.02.2014 04:40 2,8 C 86 % 1018,9 hPa 0,0 l/m 4,8 km/h (1 Bft) S 180 0,7 C 2,0 C 4,5 km/h (1 Bft)
27.02.2014 04:45 2,7 C 86 % 1018,9 hPa 0,0 l/m 5,1 km/h (1 Bft) S-SW 202 0,6 C 1,7 C 5,8 km/h (2 Bft)
27.02.2014 04:50 2,7 C 88 % 1018,7 hPa 0,0 l/m 5,8 km/h (2 Bft) S 180 0,9 C 1,3 C 7,6 km/h (2 Bft)
27.02.2014 04:55 2,6 C 88 % 1018,7 hPa 0,0 l/m 6,1 km/h (2 Bft) W-SW 247 0,8 C 1,1 C 7,2 km/h (2 Bft)
27.02.2014 05:00 2,4 C 88 % 1018,7 hPa 0,0 l/m 5,6 km/h (1 Bft) S-SW 202 0,6 C 1,2 C 6,8 km/h (2 Bft)
27.02.2014 05:05 2,4 C 88 % 1018,7 hPa 0,0 l/m 5,1 km/h (1 Bft) S-SW 202 0,6 C 1,3 C 4,2 km/h (1 Bft)
27.02.2014 05:10 2,3 C 89 % 1018,8 hPa 0,0 l/m 3,7 km/h (1 Bft) S 180 0,7 C 2,0 C 3,9 km/h (1 Bft)
27.02.2014 05:15 2,3 C 90 % 1018,8 hPa 0,0 l/m 3,2 km/h (1 Bft) S 180 0,8 C 2,3 C 8,2 km/h (2 Bft)
27.02.2014 05:20 2,3 C 91 % 1018,8 hPa 0,0 l/m 5,5 km/h (1 Bft) W 270 1,0 C 1,1 C 12,6 km/h (3 Bft)
27.02.2014 05:25 2,2 C 91 % 1018,8 hPa 0,0 l/m 6,1 km/h (2 Bft) W-SW 247 0,9 C 0,7 C 5,8 km/h (2 Bft)
27.02.2014 05:30 2,1 C 92 % 1019,3 hPa 0,0 l/m 5,8 km/h (2 Bft) S 180 0,9 C 0,7 C 6,8 km/h (2 Bft)
27.02.2014 05:35 2,0 C 92 % 1019,3 hPa 0,0 l/m 6,6 km/h (2 Bft) S 180 0,8 C 0,1 C 6,9 km/h (2 Bft)
27.02.2014 05:40 1,9 C 92 % 1019,3 hPa 0,0 l/m 7,9 km/h (2 Bft) S 180 0,7 C -1,7 C 14,5 km/h (3 Bft)
27.02.2014 05:45 1,9 C 92 % 1019,3 hPa 0,0 l/m 8,0 km/h (2 Bft) S-SO 157 0,7 C -1,9 C 11,1 km/h (2 Bft)
27.02.2014 05:50 1,8 C 92 % 1019,2 hPa 0,0 l/m 7,1 km/h (2 Bft) W-SW 247 0,6 C -0,8 C 6,3 km/h (2 Bft)
27.02.2014 05:55 1,6 C 92 % 1019,2 hPa 0,0 l/m 6,8 km/h (2 Bft) S 180 0,4 C -0,4 C 6,4 km/h (2 Bft)
27.02.2014 06:00 1,3 C 92 % 1019,2 hPa 0,0 l/m 5,8 km/h (2 Bft) SO 135 0,1 C -0,1 C 4,8 km/h (1 Bft)
27.02.2014 06:05 1,1 C 93 % 1019,2 hPa 0,0 l/m 5,5 km/h (1 Bft) S 180 0,1 C -0,3 C 7,6 km/h (2 Bft)
27.02.2014 06:10 0,9 C 93 % 1019,1 hPa 0,0 l/m 4,3 km/h (1 Bft) SO 135 -0,1 C -0,2 C 4,5 km/h (1 Bft)
27.02.2014 06:15 0,8 C 93 % 1019,1 hPa 0,0 l/m 3,2 km/h (1 Bft) O-SO 112 -0,2 C 0,3 C 4,8 km/h (1 Bft)
27.02.2014 06:20 0,6 C 93 % 1019,1 hPa 0,0 l/m 3,5 km/h (1 Bft) O 90 -0,4 C 0,0 C 5,5 km/h (1 Bft)
27.02.2014 06:25 0,6 C 93 % 1019,1 hPa 0,0 l/m 4,5 km/h (1 Bft) O-NO 67 -0,4 C -0,7 C 6,4 km/h (2 Bft)
27.02.2014 06:30 0,7 C 93 % 1019,2 hPa 0,0 l/m 4,5 km/h (1 Bft) S-SO 157 -0,3 C -0,7 C 7,6 km/h (2 Bft)
27.02.2014 06:35 0,7 C 94 % 1019,2 hPa 0,0 l/m 4,3 km/h (1 Bft) S-SW 202 -0,2 C -0,6 C 5,8 km/h (2 Bft)
27.02.2014 06:40 0,7 C 94 % 1019,2 hPa 0,0 l/m 4,3 km/h (1 Bft) S 180 -0,2 C -0,4 C 4,5 km/h (1 Bft)
27.02.2014 06:45 0,6 C 94 % 1019,2 hPa 0,0 l/m 3,9 km/h (1 Bft) S-SO 157 -0,3 C -0,2 C 4,5 km/h (1 Bft)
27.02.2014 06:50 0,6 C 94 % 1019,1 hPa 0,0 l/m 2,3 km/h (1 Bft) SO 135 -0,3 C 0,7 C 2,3 km/h (1 Bft)
27.02.2014 06:55 0,6 C 94 % 1019,1 hPa 0,0 l/m 1,1 km/h (1 Bft) SO 135 -0,3 C 0,8 C 0,0 km/h (0 Bft)
27.02.2014 07:00 0,7 C 95 % 1019,1 hPa 0,0 l/m 0,3 km/h (0 Bft) SO 135 -0,0 C 0,8 C 0,0 km/h (0 Bft)
27.02.2014 07:05 0,7 C 95 % 1019,1 hPa 0,0 l/m 0,2 km/h (0 Bft) SO 135 -0,0 C 0,8 C 0,0 km/h (0 Bft)
27.02.2014 07:10 0,7 C 95 % 1019,2 hPa 0,0 l/m 0,0 km/h (0 Bft) O-SO 112 -0,0 C 0,9 C 0,0 km/h (0 Bft)
27.02.2014 07:15 0,7 C 95 % 1019,2 hPa 0,0 l/m 0,0 km/h (0 Bft) O-SO 112 -0,0 C 0,9 C 0,0 km/h (0 Bft)
27.02.2014 07:20 0,7 C 95 % 1019,2 hPa 0,0 l/m 0,0 km/h (0 Bft) O-SO 112 -0,0 C 0,9 C 0,0 km/h (0 Bft)
27.02.2014 07:25 0,7 C 95 % 1019,2 hPa 0,0 l/m 0,0 km/h (0 Bft) O-SO 112 -0,0 C 0,9 C 0,0 km/h (0 Bft)
27.02.2014 07:30 0,8 C 95 % 1019,2 hPa 0,0 l/m 0,0 km/h (0 Bft) O-SO 112 0,1 C 1,0 C 0,0 km/h (0 Bft)
27.02.2014 07:35 0,9 C 95 % 1019,2 hPa 0,0 l/m 0,2 km/h (0 Bft) O-SO 112 0,2 C 1,0 C 0,0 km/h (0 Bft)
27.02.2014 07:40 0,9 C 95 % 1019,2 hPa 0,0 l/m 0,2 km/h (0 Bft) O-SO 112 0,2 C 1,2 C 0,0 km/h (0 Bft)
27.02.2014 07:45 1,0 C 95 % 1019,2 hPa 0,0 l/m 0,0 km/h (0 Bft) SO 135 0,3 C 1,1 C 0,0 km/h (0 Bft)
27.02.2014 07:50 1,1 C 95 % 1019,2 hPa 0,0 l/m 0,6 km/h (0 Bft) O-SO 112 0,4 C 1,3 C 0,0 km/h (0 Bft)
27.02.2014 07:55 1,1 C 95 % 1019,2 hPa 0,0 l/m 1,0 km/h (0 Bft) O-SO 112 0,4 C 1,3 C 3,1 km/h (1 Bft)
27.02.2014 08:00 1,1 C 95 % 1019,2 hPa 0,0 l/m 0,8 km/h (0 Bft) O 90 0,4 C 1,5 C 2,6 km/h (1 Bft)
27.02.2014 08:05 1,2 C 95 % 1019,2 hPa 0,0 l/m 1,4 km/h (1 Bft) O-SO 112 0,5 C 1,5 C 3,4 km/h (1 Bft)
27.02.2014 08:10 1,2 C 96 % 1019,4 hPa 0,0 l/m 3,4 km/h (1 Bft) O-SO 112 0,6 C 1,1 C 5,0 km/h (1 Bft)
27.02.2014 08:15 1,2 C 96 % 1019,4 hPa 0,0 l/m 3,9 km/h (1 Bft) O-SO 112 0,6 C 0,8 C 4,7 km/h (1 Bft)
27.02.2014 08:20 1,2 C 95 % 1019,4 hPa 0,0 l/m 3,1 km/h (1 Bft) O-SO 112 0,5 C 1,4 C 3,7 km/h (1 Bft)
27.02.2014 08:25 1,3 C 96 % 1019,4 hPa 0,0 l/m 2,9 km/h (1 Bft) O-SO 112 0,7 C 1,5 C 6,1 km/h (2 Bft)
27.02.2014 08:30 1,3 C 96 % 1019,6 hPa 0,0 l/m 3,5 km/h (1 Bft) O-SO 112 0,7 C 1,1 C 3,2 km/h (1 Bft)
27.02.2014 08:35 1,3 C 96 % 1019,6 hPa 0,0 l/m 3,4 km/h (1 Bft) O 90 0,7 C 1,2 C 3,1 km/h (1 Bft)
27.02.2014 08:40 1,3 C 95 % 1019,6 hPa 0,0 l/m 1,9 km/h (1 Bft) SO 135 0,6 C 1,8 C 3,2 km/h (1 Bft)
27.02.2014 08:45 1,3 C 95 % 1019,6 hPa 0,0 l/m 1,3 km/h (1 Bft) O-SO 112 0,6 C 1,8 C 0,0 km/h (0 Bft)
27.02.2014 08:50 1,4 C 96 % 1019,6 hPa 0,0 l/m 1,8 km/h (1 Bft) O 90 0,8 C 1,9 C 0,0 km/h (0 Bft)
27.02.2014 08:55 1,5 C 96 % 1019,6 hPa 0,0 l/m 1,6 km/h (1 Bft) O-SO 112 0,9 C 1,9 C 2,3 km/h (1 Bft)
27.02.2014 09:00 1,6 C 96 % 1019,6 hPa 0,0 l/m 0,8 km/h (0 Bft) S-SO 157 1,0 C 2,1 C 0,0 km/h (0 Bft)
27.02.2014 09:05 1,7 C 96 % 1019,6 hPa 0,0 l/m 0,5 km/h (0 Bft) S-SO 157 1,1 C 2,3 C 3,2 km/h (1 Bft)
27.02.2014 09:10 1,8 C 96 % 1019,4 hPa 0,0 l/m 0,5 km/h (0 Bft) S 180 1,2 C 2,6 C 0,0 km/h (0 Bft)
27.02.2014 09:13 2,0 C 95 % 1019,4 hPa 0,0 l/m 1,0 km/h (0 Bft) S 180 1,3 C 2,6 C 1,9 km/h (1 Bft)
27.02.2014 09:15 2,0 C 95 % 1019,4 hPa 0,0 l/m 1,0 km/h (0 Bft) S 180 1,3 C 2,6 C 1,9 km/h (1 Bft)
27.02.2014 09:20 2,3 C 95 % 1019,4 hPa 0,0 l/m 0,5 km/h (0 Bft) O 90 1,6 C 3,1 C 0,0 km/h (0 Bft)
27.02.2014 09:25 2,3 C 95 % 1019,4 hPa 0,0 l/m 0,3 km/h (0 Bft) S-SO 157 1,6 C 3,4 C 0,0 km/h (0 Bft)
27.02.2014 09:30 2,6 C 95 % 1019,5 hPa 0,0 l/m 0,5 km/h (0 Bft) S 180 1,9 C 3,8 C 1,8 km/h (1 Bft)
27.02.2014 09:35 2,7 C 95 % 1019,5 hPa 0,0 l/m 0,5 km/h (0 Bft) SO 135 2,0 C 4,0 C 0,0 km/h (0 Bft)
27.02.2014 09:40 3,5 C 94 % 1019,5 hPa 0,0 l/m 1,3 km/h (1 Bft) S-SO 157 2,6 C 5,0 C 4,0 km/h (1 Bft)
27.02.2014 09:45 3,4 C 94 % 1019,5 hPa 0,0 l/m 2,6 km/h (1 Bft) S-SO 157 2,5 C 5,2 C 7,6 km/h (2 Bft)
27.02.2014 09:50 3,0 C 93 % 1019,5 hPa 0,0 l/m 3,7 km/h (1 Bft) S 180 2,0 C 4,3 C 3,5 km/h (1 Bft)
27.02.2014 09:55 3,0 C 93 % 1019,5 hPa 0,0 l/m 3,5 km/h (1 Bft) S-SO 157 2,0 C 3,9 C 3,7 km/h (1 Bft)
27.02.2014 10:00 3,4 C 93 % 1019,5 hPa 0,0 l/m 1,3 km/h (1 Bft) O-SO 112 2,4 C 4,3 C 0,0 km/h (0 Bft)
27.02.2014 10:05 3,3 C 92 % 1019,5 hPa 0,0 l/m 0,5 km/h (0 Bft) O-SO 112 2,1 C 4,7 C 0,0 km/h (0 Bft)
27.02.2014 10:10 3,2 C 92 % 1019,6 hPa 0,0 l/m 0,2 km/h (0 Bft) O-NO 67 2,0 C 4,8 C 0,0 km/h (0 Bft)
27.02.2014 10:15 3,2 C 91 % 1019,6 hPa 0,0 l/m 0,6 km/h (0 Bft) N 360 1,9 C 4,8 C 2,9 km/h (1 Bft)
27.02.2014 10:20 3,1 C 91 % 1019,6 hPa 0,0 l/m 1,4 km/h (1 Bft) N 360 1,8 C 4,7 C 2,6 km/h (1 Bft)
27.02.2014 10:25 3,2 C 91 % 1019,6 hPa 0,0 l/m 1,4 km/h (1 Bft) N-NW 337 1,9 C 4,7 C 3,7 km/h (1 Bft)
27.02.2014 10:30 3,1 C 90 % 1019,6 hPa 0,0 l/m 1,4 km/h (1 Bft) N 360 1,6 C 4,6 C 0,0 km/h (0 Bft)
27.02.2014 10:35 3,3 C 90 % 1019,6 hPa 0,0 l/m 1,0 km/h (0 Bft) N-NO 22 1,8 C 4,7 C 0,0 km/h (0 Bft)
27.02.2014 10:40 4,1 C 90 % 1019,6 hPa 0,0 l/m 0,0 km/h (0 Bft) N-NW 337 2,6 C 5,1 C 0,0 km/h (0 Bft)
27.02.2014 10:45 4,3 C 90 % 1019,6 hPa 0,0 l/m 0,0 km/h (0 Bft) N-NO 22 2,8 C 5,7 C 0,0 km/h (0 Bft)
27.02.2014 10:50 5,1 C 88 % 1019,4 hPa 0,0 l/m 0,2 km/h (0 Bft) NO 45 3,3 C 6,5 C 0,0 km/h (0 Bft)
27.02.2014 10:55 6,6 C 84 % 1019,4 hPa 0,0 l/m 0,5 km/h (0 Bft) W-NW 292 4,1 C 8,0 C 0,0 km/h (0 Bft)
27.02.2014 11:00 6,1 C 75 % 1019,4 hPa 0,0 l/m 0,8 km/h (0 Bft) O 90 2,0 C 10,0 C 0,0 km/h (0 Bft)
27.02.2014 11:05 5,3 C 78 % 1019,4 hPa 0,0 l/m 1,9 km/h (1 Bft) O-NO 67 1,8 C 9,7 C 4,3 km/h (1 Bft)
27.02.2014 11:10 6,2 C 78 % 1019,4 hPa 0,0 l/m 3,4 km/h (1 Bft) NO 45 2,7 C 10,0 C 3,4 km/h (1 Bft)
27.02.2014 11:15 6,6 C 73 % 1019,4 hPa 0,0 l/m 3,2 km/h (1 Bft) N-NW 337 2,1 C 10,2 C 3,4 km/h (1 Bft)
27.02.2014 11:20 7,6 C 69 % 1019,4 hPa 0,0 l/m 2,9 km/h (1 Bft) N-NW 337 2,3 C 11,7 C 4,7 km/h (1 Bft)
27.02.2014 11:25 6,6 C 70 % 1019,4 hPa 0,0 l/m 3,7 km/h (1 Bft) W-NW 292 1,5 C 11,8 C 4,0 km/h (1 Bft)
27.02.2014 11:30 6,0 C 70 % 1019,3 hPa 0,0 l/m 4,8 km/h (1 Bft) N 360 1,0 C 9,9 C 6,3 km/h (2 Bft)
27.02.2014 11:35 5,8 C 70 % 1019,3 hPa 0,0 l/m 5,5 km/h (1 Bft) N-NO 22 0,8 C 8,8 C 6,6 km/h (2 Bft)
27.02.2014 11:40 5,9 C 75 % 1019,3 hPa 0,0 l/m 4,5 km/h (1 Bft) N-NO 22 1,8 C 8,2 C 3,5 km/h (1 Bft)
27.02.2014 11:45 6,1 C 76 % 1019,3 hPa 0,0 l/m 3,2 km/h (1 Bft) W-NW 292 2,2 C 8,5 C 3,7 km/h (1 Bft)
27.02.2014 11:50 5,8 C 78 % 1019,2 hPa 0,0 l/m 3,7 km/h (1 Bft) N-NO 22 2,3 C 8,1 C 6,0 km/h (2 Bft)
27.02.2014 11:55 5,5 C 78 % 1019,2 hPa 0,0 l/m 5,3 km/h (1 Bft) S 180 2,0 C 7,1 C 7,1 km/h (2 Bft)
27.02.2014 12:00 5,3 C 77 % 1019,2 hPa 0,0 l/m 5,6 km/h (1 Bft) SW 225 1,6 C 6,4 C 6,1 km/h (2 Bft)
27.02.2014 12:05 5,2 C 79 % 1019,2 hPa 0,0 l/m 5,6 km/h (1 Bft) S-SW 202 1,9 C 6,0 C 6,8 km/h (2 Bft)
27.02.2014 12:10 5,1 C 78 % 1018,7 hPa 0,0 l/m 5,5 km/h (1 Bft) W-SW 247 1,6 C 5,9 C 5,5 km/h (1 Bft)
27.02.2014 12:15 5,3 C 79 % 1018,7 hPa 0,0 l/m 5,1 km/h (1 Bft) S 180 2,0 C 6,0 C 6,6 km/h (2 Bft)
27.02.2014 12:20 5,5 C 83 % 1018,7 hPa 0,0 l/m 4,3 km/h (1 Bft) S 180 2,8 C 6,4 C 7,4 km/h (2 Bft)
27.02.2014 12:25 5,6 C 82 % 1018,7 hPa 0,0 l/m 4,5 km/h (1 Bft) S-SW 202 2,8 C 6,5 C 6,8 km/h (2 Bft)
27.02.2014 12:30 5,8 C 82 % 1018,5 hPa 0,0 l/m 5,1 km/h (1 Bft) W-NW 292 3,0 C 6,6 C 4,8 km/h (1 Bft)
27.02.2014 12:35 5,6 C 82 % 1018,5 hPa 0,0 l/m 3,7 km/h (1 Bft) N 360 2,8 C 7,2 C 4,2 km/h (1 Bft)
27.02.2014 12:40 5,6 C 83 % 1018,5 hPa 0,0 l/m 1,3 km/h (1 Bft) W-NW 292 2,9 C 7,7 C 0,0 km/h (0 Bft)
27.02.2014 12:45 5,8 C 79 % 1018,5 hPa 0,0 l/m 2,6 km/h (1 Bft) S-SW 202 2,4 C 7,8 C 7,2 km/h (2 Bft)
27.02.2014 12:50 5,7 C 79 % 1017,9 hPa 0,0 l/m 6,0 km/h (2 Bft) S 180 2,3 C 6,4 C 8,7 km/h (2 Bft)
27.02.2014 12:55 5,7 C 78 % 1017,9 hPa 0,0 l/m 5,6 km/h (1 Bft) W-SW 247 2,2 C 6,4 C 4,0 km/h (1 Bft)
27.02.2014 13:00 5,9 C 81 % 1017,9 hPa 0,0 l/m 4,2 km/h (1 Bft) S-SO 157 2,9 C 6,9 C 4,0 km/h (1 Bft)
27.02.2014 13:05 6,4 C 82 % 1017,9 hPa 0,0 l/m 3,7 km/h (1 Bft) S-SO 157 3,6 C 7,3 C 4,3 km/h (1 Bft)
27.02.2014 13:10 6,6 C 82 % 1017,6 hPa 0,0 l/m 3,9 km/h (1 Bft) S 180 3,8 C 7,7 C 4,8 km/h (1 Bft)
27.02.2014 13:15 6,7 C 80 % 1017,6 hPa 0,0 l/m 4,2 km/h (1 Bft) S 180 3,5 C 7,9 C 6,4 km/h (2 Bft)
27.02.2014 13:20 7,2 C 82 % 1017,6 hPa 0,0 l/m 3,2 km/h (1 Bft) SO 135 4,3 C 8,5 C 3,9 km/h (1 Bft)
27.02.2014 13:25 7,1 C 79 % 1017,6 hPa 0,0 l/m 2,7 km/h (1 Bft) S 180 3,7 C 8,9 C 2,1 km/h (1 Bft)
27.02.2014 13:30 7,5 C 78 % 1017,1 hPa 0,0 l/m 2,6 km/h (1 Bft) W-SW 247 3,9 C 9,5 C 2,3 km/h (1 Bft)
27.02.2014 13:35 7,7 C 79 % 1017,1 hPa 0,0 l/m 1,6 km/h (1 Bft) SW 225 4,3 C 9,7 C 0,0 km/h (0 Bft)
27.02.2014 13:40 7,6 C 70 % 1017,1 hPa 0,0 l/m 3,4 km/h (1 Bft) W-SW 247 2,5 C 9,5 C 6,3 km/h (2 Bft)
27.02.2014 13:45 7,7 C 72 % 1017,1 hPa 0,0 l/m 4,7 km/h (1 Bft) W-SW 247 3,0 C 9,4 C 5,1 km/h (1 Bft)
27.02.2014 13:50 7,3 C 72 % 1016,6 hPa 0,0 l/m 3,5 km/h (1 Bft) S-SW 202 2,6 C 9,3 C 2,1 km/h (1 Bft)
27.02.2014 13:55 7,3 C 73 % 1016,6 hPa 0,0 l/m 2,7 km/h (1 Bft) O-SO 112 2,8 C 9,1 C 2,4 km/h (1 Bft)
27.02.2014 14:00 7,1 C 73 % 1016,6 hPa 0,0 l/m 1,9 km/h (1 Bft) W-NW 292 2,6 C 8,9 C 3,7 km/h (1 Bft)
27.02.2014 14:05 6,6 C 64 % 1016,6 hPa 0,0 l/m 2,3 km/h (1 Bft) N-NW 337 0,3 C 8,7 C 3,4 km/h (1 Bft)
27.02.2014 14:08 6,5 C 68 % 1016,5 hPa 0,0 l/m 3,9 km/h (1 Bft) W-NW 292 1,0 C 8,2 C 3,2 km/h (1 Bft)
27.02.2014 14:10 6,5 C 68 % 1016,5 hPa 0,0 l/m 3,9 km/h (1 Bft) W-NW 292 1,0 C 8,2 C 3,2 km/h (1 Bft)
27.02.2014 14:15 6,4 C 61 % 1016,5 hPa 0,0 l/m 4,2 km/h (1 Bft) NO 45 -0,6 C 8,0 C 5,5 km/h (1 Bft)
27.02.2014 14:20 7,0 C 66 % 1016,5 hPa 0,0 l/m 3,1 km/h (1 Bft) N-NW 337 1,1 C 8,4 C 3,9 km/h (1 Bft)
27.02.2014 14:25 7,0 C 61 % 1016,5 hPa 0,0 l/m 3,2 km/h (1 Bft) N 360 0,0 C 8,9 C 6,4 km/h (2 Bft)
27.02.2014 14:30 6,6 C 59 % 1016,1 hPa 0,0 l/m 4,2 km/h (1 Bft) N 360 -0,8 C 8,9 C 4,5 km/h (1 Bft)
27.02.2014 14:35 6,6 C 60 % 1016,1 hPa 0,0 l/m 4,3 km/h (1 Bft) NW 315 -0,6 C 8,7 C 4,5 km/h (1 Bft)
27.02.2014 14:40 6,4 C 62 % 1016,1 hPa 0,0 l/m 5,0 km/h (1 Bft) SW 225 -0,3 C 7,8 C 6,6 km/h (2 Bft)
27.02.2014 14:45 6,4 C 62 % 1016,1 hPa 0,0 l/m 5,3 km/h (1 Bft) W-NW 292 -0,3 C 7,4 C 5,3 km/h (1 Bft)
27.02.2014 14:50 6,4 C 64 % 1015,7 hPa 0,0 l/m 5,3 km/h (1 Bft) W-SW 247 0,1 C 6,9 C 7,1 km/h (2 Bft)
27.02.2014 14:55 6,5 C 65 % 1015,7 hPa 0,0 l/m 5,3 km/h (1 Bft) W-NW 292 0,4 C 6,8 C 4,8 km/h (1 Bft)
27.02.2014 15:00 7,3 C 67 % 1015,7 hPa 0,0 l/m 5,5 km/h (1 Bft) W-NW 292 1,6 C 7,2 C 6,8 km/h (2 Bft)
27.02.2014 15:05 6,8 C 66 % 1015,7 hPa 0,0 l/m 5,3 km/h (1 Bft) W 270 0,9 C 8,4 C 6,3 km/h (2 Bft)
27.02.2014 15:10 6,1 C 65 % 1015,4 hPa 0,0 l/m 5,5 km/h (1 Bft) NW 315 0,0 C 7,6 C 6,6 km/h (2 Bft)
27.02.2014 15:15 5,9 C 67 % 1015,4 hPa 0,0 l/m 5,3 km/h (1 Bft) N-NO 22 0,3 C 7,1 C 4,2 km/h (1 Bft)
27.02.2014 15:20 5,9 C 69 % 1015,4 hPa 0,0 l/m 4,0 km/h (1 Bft) W-NW 292 0,7 C 7,0 C 6,4 km/h (2 Bft)
27.02.2014 15:25 5,6 C 69 % 1015,4 hPa 0,0 l/m 4,0 km/h (1 Bft) N-NW 337 0,4 C 6,7 C 3,4 km/h (1 Bft)
27.02.2014 15:30 5,6 C 70 % 1015,2 hPa 0,0 l/m 4,8 km/h (1 Bft) N-NO 22 0,6 C 6,1 C 7,6 km/h (2 Bft)
27.02.2014 15:35 5,3 C 69 % 1015,2 hPa 0,0 l/m 5,1 km/h (1 Bft) N-NW 337 0,1 C 6,1 C 6,4 km/h (2 Bft)
27.02.2014 15:40 5,6 C 70 % 1015,2 hPa 0,0 l/m 5,0 km/h (1 Bft) N-NW 337 0,6 C 6,1 C 5,0 km/h (1 Bft)
27.02.2014 15:45 6,0 C 68 % 1015,2 hPa 0,0 l/m 4,2 km/h (1 Bft) W-NW 292 0,6 C 6,9 C 4,0 km/h (1 Bft)
27.02.2014 15:50 6,3 C 67 % 1015,0 hPa 0,0 l/m 3,5 km/h (1 Bft) W-NW 292 0,6 C 8,1 C 6,4 km/h (2 Bft)
27.02.2014 15:55 6,2 C 66 % 1015,0 hPa 0,0 l/m 4,2 km/h (1 Bft) N-NW 337 0,3 C 7,9 C 7,6 km/h (2 Bft)
27.02.2014 16:00 5,8 C 67 % 1015,0 hPa 0,0 l/m 6,4 km/h (2 Bft) NW 315 0,2 C 7,2 C 7,7 km/h (2 Bft)
27.02.2014 16:05 5,5 C 67 % 1015,0 hPa 0,0 l/m 6,6 km/h (2 Bft) N 360 -0,1 C 6,5 C 6,6 km/h (2 Bft)
27.02.2014 16:10 5,3 C 68 % 1014,8 hPa 0,0 l/m 6,3 km/h (2 Bft) NW 315 -0,1 C 5,7 C 8,4 km/h (2 Bft)
27.02.2014 16:15 5,3 C 69 % 1014,8 hPa 0,0 l/m 5,5 km/h (1 Bft) N-NW 337 0,1 C 5,6 C 3,1 km/h (1 Bft)
27.02.2014 16:20 5,2 C 69 % 1014,8 hPa 0,0 l/m 4,7 km/h (1 Bft) N 360 -0,0 C 5,6 C 7,1 km/h (2 Bft)
27.02.2014 16:25 5,1 C 70 % 1014,8 hPa 0,0 l/m 4,2 km/h (1 Bft) W-NW 292 0,1 C 5,6 C 0,0 km/h (0 Bft)
27.02.2014 16:30 5,0 C 70 % 1014,6 hPa 0,0 l/m 3,9 km/h (1 Bft) N 360 -0,0 C 5,4 C 5,1 km/h (1 Bft)
27.02.2014 16:35 5,0 C 71 % 1014,6 hPa 0,0 l/m 3,5 km/h (1 Bft) N-NW 337 0,2 C 5,6 C 3,5 km/h (1 Bft)
27.02.2014 16:40 5,0 C 71 % 1014,6 hPa 0,0 l/m 3,1 km/h (1 Bft) W-NW 292 0,2 C 5,8 C 4,8 km/h (1 Bft)
27.02.2014 16:45 5,0 C 71 % 1014,6 hPa 0,0 l/m 2,9 km/h (1 Bft) N-NW 337 0,2 C 5,8 C 1,6 km/h (1 Bft)
27.02.2014 16:50 5,0 C 71 % 1014,3 hPa 0,0 l/m 3,2 km/h (1 Bft) N 360 0,2 C 5,8 C 5,5 km/h (1 Bft)
27.02.2014 16:55 5,0 C 72 % 1014,3 hPa 0,0 l/m 2,9 km/h (1 Bft) N-NW 337 0,4 C 5,8 C 3,9 km/h (1 Bft)
27.02.2014 17:00 4,9 C 72 % 1014,3 hPa 0,0 l/m 3,5 km/h (1 Bft) NW 315 0,3 C 5,6 C 6,4 km/h (2 Bft)
27.02.2014 17:05 4,9 C 72 % 1014,3 hPa 0,0 l/m 3,5 km/h (1 Bft) N-NW 337 0,3 C 5,6 C 5,5 km/h (1 Bft)
27.02.2014 17:10 4,6 C 72 % 1014,1 hPa 0,0 l/m 4,5 km/h (1 Bft) N 360 -0,0 C 4,9 C 5,8 km/h (2 Bft)
27.02.2014 17:15 4,5 C 73 % 1014,1 hPa 0,0 l/m 4,3 km/h (1 Bft) NW 315 0,1 C 4,7 C 4,3 km/h (1 Bft)
27.02.2014 17:20 4,2 C 73 % 1014,1 hPa 0,0 l/m 2,3 km/h (1 Bft) N-NW 337 -0,2 C 5,2 C 0,0 km/h (0 Bft)
27.02.2014 17:25 4,1 C 73 % 1014,1 hPa 0,0 l/m 0,8 km/h (0 Bft) NO 45 -0,3 C 5,1 C 0,0 km/h (0 Bft)
27.02.2014 17:30 4,0 C 74 % 1013,9 hPa 0,0 l/m 0,6 km/h (0 Bft) NO 45 -0,2 C 4,8 C 1,6 km/h (1 Bft)
27.02.2014 17:35 3,9 C 74 % 1013,9 hPa 0,0 l/m 0,6 km/h (0 Bft) NO 45 -0,3 C 4,7 C 0,0 km/h (0 Bft)
27.02.2014 17:40 3,7 C 74 % 1013,9 hPa 0,0 l/m 0,2 km/h (0 Bft) NO 45 -0,5 C 4,6 C 0,0 km/h (0 Bft)
27.02.2014 17:45 3,7 C 75 % 1013,9 hPa 0,0 l/m 0,2 km/h (0 Bft) NW 315 -0,3 C 4,5 C 0,0 km/h (0 Bft)
27.02.2014 17:50 3,6 C 75 % 1013,9 hPa 0,0 l/m 0,2 km/h (0 Bft) S-SW 202 -0,4 C 4,4 C 0,0 km/h (0 Bft)
27.02.2014 17:55 3,5 C 75 % 1013,9 hPa 0,0 l/m 0,2 km/h (0 Bft) S-SW 202 -0,5 C 4,3 C 1,8 km/h (1 Bft)
27.02.2014 18:00 3,4 C 75 % 1013,9 hPa 0,0 l/m 0,3 km/h (0 Bft) W-SW 247 -0,6 C 4,2 C 0,0 km/h (0 Bft)
27.02.2014 18:05 3,4 C 75 % 1013,9 hPa 0,0 l/m 0,2 km/h (0 Bft) SO 135 -0,6 C 4,1 C 0,0 km/h (0 Bft)
27.02.2014 18:10 3,5 C 76 % 1013,7 hPa 0,0 l/m 0,6 km/h (0 Bft) NO 45 -0,3 C 4,0 C 1,8 km/h (1 Bft)
27.02.2014 18:15 3,4 C 76 % 1013,7 hPa 0,0 l/m 1,3 km/h (1 Bft) NO 45 -0,4 C 4,0 C 1,6 km/h (1 Bft)
27.02.2014 18:20 3,3 C 77 % 1013,7 hPa 0,0 l/m 1,6 km/h (1 Bft) NO 45 -0,3 C 3,9 C 2,6 km/h (1 Bft)
27.02.2014 18:25 3,2 C 77 % 1013,7 hPa 0,0 l/m 1,8 km/h (1 Bft) O-NO 67 -0,4 C 3,8 C 3,4 km/h (1 Bft)
27.02.2014 18:30 3,1 C 77 % 1013,6 hPa 0,0 l/m 2,4 km/h (1 Bft) NO 45 -0,5 C 3,6 C 3,5 km/h (1 Bft)
27.02.2014 18:35 3,1 C 77 % 1013,6 hPa 0,0 l/m 2,9 km/h (1 Bft) O 90 -0,5 C 3,3 C 4,2 km/h (1 Bft)
27.02.2014 18:40 2,9 C 78 % 1013,6 hPa 0,0 l/m 3,7 km/h (1 Bft) O-NO 67 -0,5 C 2,7 C 4,2 km/h (1 Bft)
27.02.2014 18:45 2,8 C 78 % 1013,6 hPa 0,0 l/m 3,7 km/h (1 Bft) O 90 -0,6 C 2,7 C 3,7 km/h (1 Bft)
27.02.2014 18:50 2,6 C 78 % 1013,3 hPa 0,0 l/m 3,2 km/h (1 Bft) NO 45 -0,8 C 2,7 C 2,4 km/h (1 Bft)
27.02.2014 18:55 2,4 C 79 % 1013,3 hPa 0,0 l/m 2,9 km/h (1 Bft) NO 45 -0,9 C 2,7 C 2,6 km/h (1 Bft)
27.02.2014 19:00 2,2 C 79 % 1013,3 hPa 0,0 l/m 2,3 km/h (1 Bft) NO 45 -1,1 C 2,5 C 2,3 km/h (1 Bft)
27.02.2014 19:05 2,2 C 79 % 1013,3 hPa 0,0 l/m 1,9 km/h (1 Bft) O 90 -1,1 C 2,3 C 2,6 km/h (1 Bft)
27.02.2014 19:08 2,1 C 79 % 1013,4 hPa 0,0 l/m 1,6 km/h (1 Bft) NO 45 -1,2 C 2,1 C 2,6 km/h (1 Bft)
27.02.2014 19:10 2,1 C 79 % 1013,4 hPa 0,0 l/m 1,6 km/h (1 Bft) NO 45 -1,2 C 2,1 C 2,6 km/h (1 Bft)
27.02.2014 19:15 2,0 C 79 % 1013,4 hPa 0,0 l/m 1,1 km/h (1 Bft) NO 45 -1,2 C 1,9 C 0,0 km/h (0 Bft)
27.02.2014 19:20 1,9 C 81 % 1013,4 hPa 0,0 l/m 1,1 km/h (1 Bft) NO 45 -1,0 C 1,6 C 3,7 km/h (1 Bft)
27.02.2014 19:25 1,8 C 81 % 1013,4 hPa 0,0 l/m 1,8 km/h (1 Bft) N-NO 22 -1,1 C 1,5 C 4,0 km/h (1 Bft)
27.02.2014 19:30 1,3 C 81 % 1013,2 hPa 0,0 l/m 2,1 km/h (1 Bft) O-NO 67 -1,6 C 1,4 C 0,0 km/h (0 Bft)
27.02.2014 19:35 0,9 C 81 % 1013,2 hPa 0,0 l/m 1,1 km/h (1 Bft) S 180 -2,0 C 1,0 C 0,0 km/h (0 Bft)
27.02.2014 19:40 0,7 C 82 % 1013,2 hPa 0,0 l/m 0,0 km/h (0 Bft) SO 135 -2,0 C 0,5 C 0,0 km/h (0 Bft)
27.02.2014 19:45 1,0 C 83 % 1013,2 hPa 0,0 l/m 0,0 km/h (0 Bft) O-SO 112 -1,6 C 0,3 C 0,0 km/h (0 Bft)
27.02.2014 19:50 0,9 C 84 % 1013,1 hPa 0,0 l/m 1,1 km/h (1 Bft) O-NO 67 -1,5 C 0,3 C 2,7 km/h (1 Bft)
27.02.2014 19:55 1,1 C 84 % 1013,1 hPa 0,0 l/m 2,7 km/h (1 Bft) NO 45 -1,3 C 0,0 C 5,3 km/h (1 Bft)
27.02.2014 20:00 1,1 C 85 % 1013,1 hPa 0,0 l/m 3,9 km/h (1 Bft) O 90 -1,1 C -0,7 C 4,0 km/h (1 Bft)
27.02.2014 20:05 0,8 C 85 % 1013,1 hPa 0,0 l/m 3,1 km/h (1 Bft) SO 135 -1,4 C -0,3 C 0,0 km/h (0 Bft)
27.02.2014 20:10 -0,2 C 84 % 1013,2 hPa 0,0 l/m 1,0 km/h (0 Bft) O 90 -2,6 C -0,4 C 3,2 km/h (1 Bft)
27.02.2014 20:15 0,2 C 85 % 1013,2 hPa 0,0 l/m 1,4 km/h (1 Bft) O-NO 67 -2,0 C -0,6 C 4,3 km/h (1 Bft)
27.02.2014 20:20 0,6 C 86 % 1013,2 hPa 0,0 l/m 2,6 km/h (1 Bft) O-NO 67 -1,5 C -0,8 C 5,8 km/h (2 Bft)
27.02.2014 20:25 0,7 C 86 % 1013,2 hPa 0,0 l/m 3,2 km/h (1 Bft) NO 45 -1,4 C -1,0 C 6,0 km/h (2 Bft)
27.02.2014 20:30 0,5 C 87 % 1013,2 hPa 0,0 l/m 5,3 km/h (1 Bft) NO 45 -1,4 C -1,7 C 5,0 km/h (1 Bft)
27.02.2014 20:35 0,6 C 87 % 1013,2 hPa 0,0 l/m 5,3 km/h (1 Bft) NO 45 -1,3 C -1,6 C 5,5 km/h (1 Bft)
27.02.2014 20:40 0,7 C 88 % 1013,2 hPa 0,0 l/m 4,2 km/h (1 Bft) SO 135 -1,1 C -1,1 C 1,9 km/h (1 Bft)
27.02.2014 20:45 0,2 C 87 % 1013,2 hPa 0,0 l/m 2,7 km/h (1 Bft) W-SW 247 -1,7 C -0,5 C 0,0 km/h (0 Bft)
27.02.2014 20:50 -0,2 C 87 % 1013,1 hPa 0,0 l/m 0,6 km/h (0 Bft) SO 135 -2,1 C -0,5 C 0,0 km/h (0 Bft)
27.02.2014 20:55 -0,3 C 87 % 1013,1 hPa 0,0 l/m 0,8 km/h (0 Bft) NO 45 -2,2 C -0,7 C 3,9 km/h (1 Bft)
27.02.2014 21:00 -0,2 C 87 % 1013,1 hPa 0,0 l/m 1,0 km/h (0 Bft) N-NO 22 -2,1 C -0,5 C 0,0 km/h (0 Bft)
27.02.2014 21:05 -0,3 C 87 % 1013,1 hPa 0,0 l/m 0,6 km/h (0 Bft) N-NO 22 -2,2 C -0,6 C 0,0 km/h (0 Bft)
27.02.2014 21:10 -0,3 C 87 % 1012,9 hPa 0,0 l/m 0,6 km/h (0 Bft) SO 135 -2,2 C -0,6 C 2,6 km/h (1 Bft)
27.02.2014 21:15 -0,2 C 87 % 1012,9 hPa 0,0 l/m 1,4 km/h (1 Bft) SO 135 -2,1 C -0,5 C 2,1 km/h (1 Bft)
27.02.2014 21:20 -0,2 C 88 % 1012,9 hPa 0,0 l/m 1,3 km/h (1 Bft) S 180 -1,9 C -0,4 C 0,0 km/h (0 Bft)
27.02.2014 21:25 -0,1 C 88 % 1012,9 hPa 0,0 l/m 0,6 km/h (0 Bft) S 180 -1,8 C -0,3 C 0,0 km/h (0 Bft)
27.02.2014 21:30 -0,1 C 88 % 1013,4 hPa 0,0 l/m 0,2 km/h (0 Bft) SO 135 -1,8 C -0,2 C 2,3 km/h (1 Bft)
27.02.2014 21:35 0,2 C 88 % 1013,4 hPa 0,0 l/m 0,6 km/h (0 Bft) O-SO 112 -1,5 C 0,0 C 0,0 km/h (0 Bft)
27.02.2014 21:40 1,0 C 88 % 1013,4 hPa 0,0 l/m 2,6 km/h (1 Bft) S-SO 157 -0,8 C 0,3 C 4,5 km/h (1 Bft)
27.02.2014 21:45 1,2 C 89 % 1013,4 hPa 0,0 l/m 4,2 km/h (1 Bft) S 180 -0,4 C -0,2 C 7,2 km/h (2 Bft)
27.02.2014 21:50 1,4 C 88 % 1013,4 hPa 0,0 l/m 4,7 km/h (1 Bft) O-SO 112 -0,4 C -0,1 C 4,8 km/h (1 Bft)
27.02.2014 21:55 1,4 C 88 % 1013,4 hPa 0,0 l/m 5,1 km/h (1 Bft) O-SO 112 -0,4 C 0,1 C 7,6 km/h (2 Bft)
27.02.2014 22:00 1,5 C 88 % 1013,4 hPa 0,0 l/m 5,6 km/h (1 Bft) O-SO 112 -0,3 C 0,2 C 4,8 km/h (1 Bft)
27.02.2014 22:05 1,4 C 88 % 1013,4 hPa 0,0 l/m 4,2 km/h (1 Bft) O-SO 112 -0,4 C 0,8 C 4,8 km/h (1 Bft)
27.02.2014 22:10 1,5 C 88 % 1013,4 hPa 0,0 l/m 2,1 km/h (1 Bft) NO 45 -0,3 C 1,9 C 2,9 km/h (1 Bft)
27.02.2014 22:15 1,4 C 87 % 1013,4 hPa 0,0 l/m 1,8 km/h (1 Bft) SO 135 -0,5 C 1,9 C 0,0 km/h (0 Bft)
27.02.2014 22:20 1,6 C 87 % 1013,4 hPa 0,0 l/m 2,4 km/h (1 Bft) O-SO 112 -0,3 C 2,0 C 4,3 km/h (1 Bft)
27.02.2014 22:25 1,6 C 87 % 1013,4 hPa 0,0 l/m 2,7 km/h (1 Bft) O 90 -0,3 C 2,1 C 0,0 km/h (0 Bft)
27.02.2014 22:30 1,6 C 87 % 1013,1 hPa 0,0 l/m 2,7 km/h (1 Bft) NO 45 -0,3 C 2,1 C 3,1 km/h (1 Bft)
27.02.2014 22:35 1,6 C 87 % 1013,1 hPa 0,0 l/m 2,4 km/h (1 Bft) O-SO 112 -0,3 C 2,0 C 3,4 km/h (1 Bft)
27.02.2014 22:40 1,6 C 87 % 1013,1 hPa 0,0 l/m 2,1 km/h (1 Bft) SO 135 -0,3 C 2,0 C 2,3 km/h (1 Bft)
27.02.2014 22:45 1,6 C 87 % 1013,1 hPa 0,0 l/m 1,8 km/h (1 Bft) S-SW 202 -0,3 C 2,0 C 2,9 km/h (1 Bft)
27.02.2014 22:50 1,8 C 88 % 1012,9 hPa 0,0 l/m 1,6 km/h (1 Bft) NO 45 0,0 C 2,0 C 2,7 km/h (1 Bft)
27.02.2014 22:55 1,7 C 88 % 1012,9 hPa 0,0 l/m 2,3 km/h (1 Bft) S-SW 202 -0,1 C 1,9 C 5,1 km/h (1 Bft)
27.02.2014 23:00 1,7 C 88 % 1012,9 hPa 0,0 l/m 2,6 km/h (1 Bft) O-NO 67 -0,1 C 1,9 C 4,3 km/h (1 Bft)
27.02.2014 23:05 1,8 C 87 % 1012,9 hPa 0,0 l/m 3,5 km/h (1 Bft) O 90 -0,1 C 1,3 C 3,7 km/h (1 Bft)
27.02.2014 23:10 1,6 C 87 % 1012,8 hPa 0,0 l/m 2,1 km/h (1 Bft) O-SO 112 -0,3 C 1,8 C 0,0 km/h (0 Bft)
27.02.2014 23:15 1,5 C 87 % 1012,8 hPa 0,0 l/m 1,0 km/h (0 Bft) S 180 -0,4 C 1,8 C 3,9 km/h (1 Bft)
27.02.2014 23:20 1,4 C 87 % 1012,8 hPa 0,0 l/m 1,6 km/h (1 Bft) S-SO 157 -0,5 C 1,7 C 2,4 km/h (1 Bft)
27.02.2014 23:25 1,4 C 87 % 1012,8 hPa 0,0 l/m 1,6 km/h (1 Bft) S-SO 157 -0,5 C 1,7 C 0,0 km/h (0 Bft)
27.02.2014 23:30 1,4 C 88 % 1012,6 hPa 0,0 l/m 0,8 km/h (0 Bft) NO 45 -0,4 C 1,6 C 1,8 km/h (1 Bft)
27.02.2014 23:35 1,4 C 88 % 1012,6 hPa 0,0 l/m 1,4 km/h (1 Bft) NO 45 -0,4 C 1,6 C 3,5 km/h (1 Bft)
27.02.2014 23:40 1,4 C 88 % 1012,6 hPa 0,0 l/m 2,4 km/h (1 Bft) NO 45 -0,4 C 1,6 C 2,3 km/h (1 Bft)
27.02.2014 23:45 1,4 C 88 % 1012,6 hPa 0,0 l/m 2,1 km/h (1 Bft) NO 45 -0,4 C 1,6 C 0,0 km/h (0 Bft)
27.02.2014 23:50 1,4 C 88 % 1012,4 hPa 0,0 l/m 0,5 km/h (0 Bft) NO 45 -0,4 C 1,6 C 0,0 km/h (0 Bft)
27.02.2014 23:55 1,2 C 88 % 1012,4 hPa 0,0 l/m 0,0 km/h (0 Bft) O-SO 112 -0,6 C 1,5 C 0,0 km/h (0 Bft)
_ Min-Zeit 01:55 14:30 23:55 - 23:55 - - 01:55 05:45 23:55
Minimum _ -1,1 C 59 % 1012,4 hPa - 0,0 km/h (0 Bft) - - -4,4 C -1,9 C 0,0 km/h (0 Bft)
_ Max-Zeit 13:45 09:10 10:45 23:55 05:45 - - 13:20 11:25 05:40
Maximum _ 7,7 C 96 % 1019,6 hPa 0,0 l/m 8,0 km/h
S-SO (2 Bft)
- - 4,3 C 11,8 C 14,5 km/h
S (3 Bft)
Durchschnitt _ 2,8 C 83 % 1016,8 hPa #0,0 l/m 3,0 km/h (1 Bft) O-SO - 0,1 C 3,0 C 3,6 km/h (1 Bft)